Weather in Kamenka

Russia / Nenets Autonomous Okrug     67°29′16″N   51°52′52″E
temp.,
°C
wind,
m/s
gust,
m/s
humid.,
%
clouds,
%
prec.,
mm/h
press.,
hPa
HPBL,
m
1 march, mon
mon100:00−11ssw599599 0.1 1004165
03:00−7ssw81495100 0.5 1001438
06:00−4ssw91495100 1.3 997657
09:00−4ssw91495100 2.9 992649
12:00−3ssw101596100 3.1 987868
15:00+1w81498100 6.1 985609
18:00+1w91494100 0.4 983710
21:00−1w71392100 0.5 984497
2 march, tue
tue200:00−4wsw6109698 0.0 984241
03:00−3wsw589699 0.3 984296
06:00−6wsw459699 0.1 98480
09:00−7wsw459599 0.2 98588
12:00−4wnw359697 0.4 986218
15:00−4nw369499 0.8 988224
18:00−8wnw348699 0.0 98836
21:00−12wsw339165 0.0 98821
3 march, wed
wed300:00−12ssw229752 0.0 98721
03:00−13ese229866 0.1 98920
06:00−13ene449797 0.1 98968
09:00−16ne579699 0.2 991182
12:00−16nne5795100 0.1 992226
15:00−17n479599 0.1 993219
18:00−17nnw4696100 0.1 993140
21:00−16nw4696100 0.2 993137
4 march, thu
thu400:00−14nnw359693 0.1 993123
03:00−14nne479595 0.3 994205
06:00−16ne5109597 0.2 993256
09:00−17ne6109499 0.3 994356
12:00−17ne61093100 0.1 995411
15:00−18ne61094100 0.1 996393
18:00−20nne51097100 0.0 997215
21:00−23nne599799 0.1 998159
5 march, fri
fri500:00−24nne599796 0.0 998160
03:00−26n589898 0.0 999118
06:00−26n589894 0.0 999126
09:00−22n589594 0.1 1000324
12:00−21n589395 0.1 1002428
15:00−21nnw589398 0.1 1003489
18:00−23nnw589689 0.1 1004167
21:00−23nnw489693 0.1 1005192